CW6132 Weather Reports


time (UTC)temp
F
wind
direction
speed
knots
gust
knots
rain 1hr
in
rain 24hr
in
rain mn
in
humidity
%
barometer
mb
20260504223203 79 347 0.9 2.6 0.00 0.00 0.00 67 1009.4
20260504222704 79 293 1.7 2.6 0.00 0.00 0.00 66 1009.6
20260504222204 79 33 0.9 2.6 0.00 0.00 0.00 66 1009.6
20260504221204 79 73 0.9 1.7 0.00 0.00 0.00 66 1009.7
20260504220704 79 278 0.9 1.7 0.00 0.00 0.00 66 1009.7
20260504220204 79 325 0.9 2.6 0.00 0.00 0.00 66 1009.8
20260504215704 80 282 1.7 2.6 0.00 0.00 0.00 65 1009.8
20260504215205 80 314 1.7 4.3 0.00 0.00 0.00 64 1009.7
20260504214705 80 317 0.9 2.6 0.00 0.00 0.00 64 1009.9
20260504214205 80 249 0.9 2.6 0.00 0.00 0.00 63 1009.9
20260504213704 80 293 0.9 4.3 0.00 0.00 0.00 62 1010.0
20260504213205 80 302 0.9 1.7 0.00 0.00 0.00 63 1009.9
20260504212204 81 217 0.9 4.3 0.00 0.00 0.00 61 1010.0
20260504211204 81 346 0.9 2.6 0.00 0.00 0.00 61 1010.1
20260504210704 81 329 0.9 5.2 0.00 0.00 0.00 61 1010.1
20260504210204 81 272 0.9 4.3 0.00 0.00 0.00 61 1010.2
20260504205704 82 271 0.9 2.6 0.00 0.00 0.00 60 1010.4
20260504205204 82 263 0.9 4.3 0.00 0.00 0.00 60 1010.4
20260504204704 82 223 0.9 2.6 0.00 0.00 0.00 59 1010.3
20260504204204 82 343 1.7 2.6 0.00 0.00 0.00 59 1010.4
20260504202704 82 340 0.9 1.7 0.00 0.00 0.00 59 1010.6
20260504201705 83 9 0.9 4.3 0.00 0.00 0.00 57 1010.8
20260504201204 83 244 0.9 4.3 0.00 0.00 0.00 58 1010.9
20260504200204 85 269 0.9 2.6 0.00 0.00 0.00 56 1011.0
20260504195704 85 290 0.9 2.6 0.00 0.00 0.00 55 1011.0
20260504195205 85 286 0.9 2.6 0.00 0.00 0.00 54 1011.0
20260504194704 85 300 1.7 2.6 0.00 0.00 0.00 56 1011.2
20260504194204 83 274 0.9 2.6 0.00 0.00 0.00 58 1011.3
20260504193705 83 11 0.9 4.3 0.00 0.00 0.00 58 1011.2
20260504193204 84 251 0.9 2.6 0.00 0.00 0.00 56 1011.2
20260504192705 85 278 0.9 2.6 0.00 0.00 0.00 54 1011.4
20260504191704 84 326 0.9 2.6 0.00 0.00 0.00 55 1011.5
20260504191204 84 300 0.9 2.6 0.00 0.00 0.00 55 1011.6
20260504190704 84 237 0.9 4.3 0.00 0.00 0.00 58 1011.7
20260504190204 84 334 0.9 2.6 0.00 0.00 0.00 55 1011.7
20260504185704 83 350 0.9 2.6 0.00 0.00 0.00 56 1011.7
20260504184204 84 280 0.9 2.6 0.00 0.00 0.00 55 1011.9
20260504183705 84 293 0.9 2.6 0.00 0.00 0.00 56 1011.8
20260504183205 84 294 0.0 2.6 0.00 0.00 0.00 56 1011.6
20260504182704 83 296 0.9 2.6 0.00 0.00 0.00 54 1011.7
20260504182204 83 331 0.9 2.6 0.00 0.00 0.00 56 1011.9
20260504180704 85 269 0.9 2.6 0.00 0.00 0.00 54 1012.3
20260504180204 84 303 0.9 4.3 0.00 0.00 0.00 56 1012.4
20260504175704 83 23 0.9 2.6 0.00 0.00 0.00 55 1012.4
20260504175205 82 308 1.7 2.6 0.00 0.00 0.00 56 1012.4
20260504174703 81 255 0.9 2.6 0.00 0.00 0.00 58 1012.6
20260504173705 82 293 0.9 2.6 0.00 0.00 0.00 57 1012.5
20260504173204 82 292 0.9 2.6 0.00 0.00 0.00 58 1012.7
20260504172704 82 229 0.9 2.6 0.00 0.00 0.00 57 1012.7
20260504172204 82 323 0.9 4.3 0.00 0.00 0.00 56 1012.9
20260504171204 81 171 0.9 4.3 0.00 0.00 0.00 58 1013.0
20260504170704 82 299 1.7 2.6 0.00 0.00 0.00 54 1013.0
20260504160204 78 295 0.9 2.6 0.00 0.00 0.00 61 1013.9
20260504150704 77 316 0.9 2.6 0.00 0.00 0.00 63 1013.9
20260504150203 77 303 0.9 4.3 0.00 0.00 0.00 62 1013.9
20260504141204 73 284 0.9 2.6 0.00 0.00 0.00 64 1014.1
20260504140704 73 352 0.9 2.6 0.00 0.00 0.00 65 1013.8
20260504140204 72 302 0.9 1.7 0.00 0.00 0.00 66 1013.9
20260504130704 65 303 0.9 1.7 0.00 0.00 0.00 75 1014.0
20260504130204 64 266 0.9 1.7 0.00 0.00 0.00 77 1013.9
20260504120204 61 303 0.0 1.7 0.00 0.00 0.00 82 1013.7
20260504110705 60 288 0.0 0.9 0.00 0.00 0.00 83 1013.6
20260504110204 60 267 0.9 0.9 0.00 0.00 0.00 82 1013.6
20260504100204 62 255 0.9 1.7 0.00 0.00 0.00 78 1013.8
20260504081704 64 302 0.9 1.7 0.00 0.00 0.00 72 1014.4
20260504081204 64 294 0.9 2.6 0.00 0.00 0.00 72 1014.5
20260504080703 64 288 0.9 1.7 0.00 0.00 0.00 72 1014.6
20260504080204 64 280 0.9 0.9 0.00 0.00 0.00 72 1014.7
20260504070204 65 276 0.9 1.7 0.00 0.00 0.00 68 1015.4
20260504060204 65 304 0.0 1.7 0.00 0.00 0.00 67 1015.9
20260504050706 66 257 0.9 1.7 0.00 0.00 0.00 65 1016.2
20260504045204 66 284 0.9 1.7 0.00 0.00 0.00 62 1016.3
20260504044705 66 293 0.9 1.7 0.00 0.00 0.00 63 1016.3
20260504044205 66 263 0.0 1.7 0.00 0.00 0.00 64 1016.3
20260504043204 66 271 0.9 1.7 0.00 0.00 0.00 63 1016.4
20260504042705 66 285 0.0 1.7 0.00 0.00 0.00 64 1016.4
20260504042204 66 311 0.0 1.7 0.00 0.00 0.00 64 1016.5
20260504041704 66 290 0.9 1.7 0.00 0.00 0.00 63 1016.5
20260504041206 66 335 0.0 0.9 0.00 0.00 0.00 64 1016.5
20260504040704 66 285 0.9 1.7 0.00 0.00 0.00 64 1016.4
20260504040204 67 289 0.9 1.7 0.00 0.00 0.00 63 1016.4
20260504035704 67 309 0.9 1.7 0.00 0.00 0.00 63 1016.4
20260504035204 67 248 0.9 1.7 0.00 0.00 0.00 62 1016.4
20260504034704 67 308 0.0 1.7 0.00 0.00 0.00 63 1016.5
20260504034203 67 297 0.9 1.7 0.00 0.00 0.00 62 1016.5
20260504033704 67 296 0.9 1.7 0.00 0.00 0.00 62 1016.5
20260504033204 68 305 0.0 1.7 0.00 0.00 0.00 62 1016.5
20260504032204 68 260 0.9 1.7 0.00 0.00 0.00 62 1016.4
20260504031704 68 338 0.9 1.7 0.00 0.00 0.00 62 1016.3
20260504031204 68 275 0.9 1.7 0.00 0.00 0.00 61 1016.4
20260504030704 68 258 0.9 1.7 0.00 0.00 0.00 61 1016.3
20260504030204 68 291 0.0 2.6 0.00 0.00 0.00 61 1016.2
20260504025704 69 283 0.0 0.9 0.00 0.00 0.00 60 1016.2
20260504025204 69 296 0.9 1.7 0.00 0.00 0.00 60 1016.2
20260504024704 69 334 0.0 1.7 0.00 0.00 0.00 60 1016.2
20260504024204 69 284 0.9 2.6 0.00 0.00 0.00 59 1016.2
20260504023704 69 253 0.9 1.7 0.00 0.00 0.00 59 1016.2
20260504022704 69 298 0.9 1.7 0.00 0.00 0.00 59 1016.3
20260504022204 70 306 0.9 4.3 0.00 0.00 0.00 59 1016.2
20260504021704 70 281 0.0 1.7 0.00 0.00 0.00 58 1016.1
20260504020206 70 207 0.9 1.7 0.00 0.00 0.00 57 1016.1
20260504015704 71 240 0.9 2.6 0.00 0.00 0.00 56 1016.1
20260504015204 71 274 0.9 5.2 0.00 0.00 0.00 56 1016.1
20260504014704 71 267 1.7 4.3 0.00 0.00 0.00 56 1016.1
20260504014204 71 346 0.9 1.7 0.00 0.00 0.00 55 1016.1
20260504013704 71 335 0.9 2.6 0.00 0.00 0.00 55 1016.0
20260504013204 71 295 0.9 2.6 0.00 0.00 0.00 54 1016.0
20260504012204 72 267 0.9 2.6 0.00 0.00 0.00 53 1015.9
20260504011704 72 213 0.9 4.3 0.00 0.00 0.00 52 1015.9
20260504011204 72 273 0.9 4.3 0.00 0.00 0.00 52 1015.9
20260504010704 72 270 0.9 4.3 0.00 0.00 0.00 52 1015.8
20260504010204 73 290 0.9 2.6 0.00 0.00 0.00 52 1015.8
20260504005704 73 279 0.9 2.6 0.00 0.00 0.00 52 1015.7
20260504005204 73 291 0.9 1.7 0.00 0.00 0.00 52 1015.8
20260504004704 73 289 0.9 1.7 0.00 0.00 0.00 52 1015.8
20260504004203 73 279 0.9 2.6 0.00 0.00 0.00 51 1015.8
20260504003704 73 292 0.9 1.7 0.00 0.00 0.00 50 1015.8
20260504003204 74 281 0.9 1.7 0.00 0.00 0.00 50 1015.7
20260504002705 74 353 0.9 2.6 0.00 0.00 0.00 50 1015.8
20260504001706 74 304 0.9 2.6 0.00 0.00 0.00 50 1015.7
20260504001205 75 274 0.9 2.6 0.00 0.00 0.00 49 1015.7
20260504000704 75 31 0.9 4.3 0.00 0.00 0.00 49 1015.8
20260504000204 75 324 0.9 4.3 0.00 0.00 0.00 48 1015.8
20260503235704 75 288 0.9 2.6 0.00 0.00 0.00 48 1016.0
20260503235204 75 5 0.9 4.3 0.00 0.00 0.00 48 1015.8
20260503234703 76 243 0.9 4.3 0.00 0.00 0.00 48 1015.8
20260503234204 76 238 0.9 2.6 0.00 0.00 0.00 47 1015.9
20260503233704 77 313 0.9 4.3 0.00 0.00 0.00 46 1015.9
20260503233203 77 285 0.9 2.6 0.00 0.00 0.00 46 1016.0
20260503232704 78 248 0.9 5.2 0.00 0.00 0.00 44 1016.1
20260503232204 79 273 0.9 2.6 0.00 0.00 0.00 44 1016.0
20260503231704 79 324 0.9 2.6 0.00 0.00 0.00 44 1016.0
20260503231204 79 268 0.9 2.6 0.00 0.00 0.00 44 1015.9
20260503230704 79 269 0.9 4.3 0.00 0.00 0.00 45 1015.9
20260503225704 79 305 0.9 1.7 0.00 0.00 0.00 44 1016.1
20260503225204 79 295 0.9 1.7 0.00 0.00 0.00 43 1016.1
20260503224704 79 266 0.9 2.6 0.00 0.00 0.00 43 1016.1
20260503224203 79 261 0.9 2.6 0.00 0.00 0.00 42 1016.1
20260503223704 79 327 0.0 2.6 0.00 0.00 0.00 42 1016.1